DW7533 Weather Reports


time (UTC)temp
F
wind
direction
speed
knots
gust
knots
rain 1hr
in
rain 24hr
in
rain mn
in
humidity
%
barometer
mb
20260506034305 65 73 4.3 7.0 0.00 0.00 0.00 68 1031.1
20260506033804 65 91 2.6 7.8 0.00 0.00 0.00 70 1031.7
20260506033305 64 64 2.6 12.2 0.00 0.00 0.00 68 1031.7
20260506032805 64 92 3.5 10.4 0.00 0.00 0.00 68 1031.7
20260506032306 64 85 2.6 7.8 0.00 0.00 0.00 69 1031.7
20260506031806 63 49 6.1 11.3 0.00 0.00 0.00 70 1031.7
20260506031305 64 88 4.3 7.8 0.00 0.00 0.00 69 1031.7
20260506030305 63 29 1.7 6.1 0.00 0.00 0.00 72 1031.7
20260506025805 63 72 4.3 10.4 0.00 0.00 0.00 71 1031.7
20260506025306 62 102 5.2 13.9 0.00 0.00 0.00 71 1031.8
20260506024805 62 56 5.2 13.9 0.00 0.00 0.00 72 1031.8
20260506024306 62 59 6.1 10.4 0.00 0.00 0.00 71 1032.2
20260506023807 63 61 1.7 6.1 0.00 0.00 0.00 72 1032.2
20260506023305 62 34 2.6 7.8 0.00 0.00 0.00 72 1032.2
20260506022307 62 98 2.6 7.0 0.00 0.00 0.00 73 1032.2
20260506021804 61 51 5.2 10.4 0.00 0.00 0.00 73 1032.2
20260506021305 61 40 7.8 13.0 0.00 0.00 0.00 73 1032.2
20260506020804 61 59 5.2 11.3 0.00 0.00 0.00 72 1032.2
20260506015805 61 103 2.6 7.0 0.00 0.00 0.00 74 1032.2
20260506015306 61 49 2.6 8.7 0.00 0.00 0.00 73 1032.2
20260506014804 60 73 2.6 8.7 0.00 0.00 0.00 74 1032.2
20260506014305 60 65 2.6 10.4 0.00 0.00 0.00 75 1032.2
20260506013806 59 57 5.2 11.3 0.00 0.00 0.00 75 1032.2
20260506013306 59 53 4.3 7.8 0.00 0.00 0.00 76 1032.3
20260506011805 59 42 2.6 8.7 0.00 0.00 0.00 78 1032.3
20260506011305 58 106 5.2 8.7 0.00 0.00 0.00 78 1032.3
20260506010805 58 78 4.3 12.2 0.00 0.00 0.00 79 1032.2
20260506010305 58 64 3.5 10.4 0.00 0.00 0.00 80 1032.2
20260506005805 58 102 4.3 6.1 0.00 0.00 0.00 79 1032.2
20260506005306 57 54 2.6 7.8 0.00 0.00 0.00 80 1032.2
20260506004805 57 68 4.3 7.8 0.00 0.00 0.00 81 1032.2
20260506003804 57 100 2.6 7.8 0.00 0.00 0.00 81 1032.0
20260506003304 56 87 2.6 10.4 0.00 0.00 0.00 82 1032.0
20260506002805 56 41 2.6 6.1 0.00 0.00 0.00 82 1032.0
20260506002306 56 76 4.3 7.0 0.00 0.00 0.00 82 1032.0
20260506001806 56 45 4.3 8.7 0.00 0.00 0.00 82 1031.6
20260506001305 55 106 4.3 7.0 0.00 0.00 0.00 83 1031.6
20260505235805 55 92 4.3 7.8 0.00 0.00 0.00 84 1031.6
20260505235305 55 42 3.5 7.0 0.00 0.00 0.00 84 1031.6
20260505234805 55 73 5.2 8.7 0.00 0.00 0.00 84 1031.6
20260505234305 55 39 4.3 11.3 0.00 0.00 0.00 84 1031.7
20260505233805 55 65 2.6 8.7 0.00 0.00 0.00 84 1031.7
20260505233305 54 45 4.3 7.0 0.00 0.00 0.00 85 1031.2
20260505232806 54 59 4.3 7.0 0.00 0.01 0.00 85 1031.2
20260505232306 54 78 2.6 5.2 0.00 0.01 0.00 85 1031.2
20260505231805 54 60 4.3 8.7 0.00 0.01 0.00 86 1031.2
20260505231305 54 57 3.5 7.8 0.00 0.01 0.00 86 1031.2
20260505230806 54 0 0.9 4.3 0.00 0.01 0.00 85 1031.2
20260505230305 54 64 2.6 6.1 0.00 0.01 0.00 85 1031.2
20260505225804 54 26 3.5 6.1 0.00 0.01 0.00 85 1031.2
20260505225306 54 21 2.6 5.2 0.00 0.01 0.00 85 1031.2
20260505224806 54 84 1.7 5.2 0.00 0.01 0.00 85 1030.7
20260505223806 54 64 3.5 5.2 0.00 0.01 0.00 85 1030.7
20260505222805 54 80 2.6 10.4 0.00 0.01 0.00 86 1030.7
20260505222306 54 205 1.7 7.0 0.00 0.01 0.00 87 1030.7
20260505221806 54 101 2.6 7.8 0.00 0.01 0.00 87 1030.7
20260505221305 54 109 0.9 5.2 0.00 0.01 0.00 87 1030.2
20260505220804 53 37 3.5 7.8 0.00 0.01 0.00 88 1030.2
20260505220304 53 75 2.6 4.3 0.00 0.01 0.00 88 1030.2
20260505215806 53 62 0.9 5.2 0.00 0.01 0.00 88 1030.2
20260505215306 53 87 2.6 4.3 0.00 0.01 0.00 89 1030.2
20260505214805 53 95 0.9 4.3 0.00 0.01 0.00 89 1030.2
20260505213806 53 65 2.6 6.1 0.00 0.01 0.00 89 1030.2
20260505213305 53 64 3.5 5.2 0.00 0.01 0.00 89 1030.2
20260505212806 53 45 0.9 1.7 0.00 0.01 0.00 89 1030.2
20260505212306 53 42 1.7 2.6 0.00 0.01 0.00 89 1030.2
20260505211806 53 64 0.9 2.6 0.00 0.01 0.00 89 1030.2
20260505211304 53 51 0.9 2.6 0.00 0.01 0.00 89 1030.2
20260505210805 53 59 1.7 4.3 0.00 0.01 0.00 89 1030.0
20260505210305 53 84 0.9 2.6 0.00 0.01 0.00 89 1030.0
20260505205805 53 69 2.6 7.8 0.00 0.01 0.00 90 1030.0
20260505204305 53 77 1.7 2.6 0.00 0.01 0.00 90 1030.0
20260505203805 53 172 2.6 6.1 0.00 0.01 0.00 90 1030.0
20260505202306 53 82 0.9 2.6 0.00 0.01 0.00 89 1029.7
20260505201805 53 69 0.9 2.6 0.00 0.01 0.00 89 1029.7
20260505201304 53 73 0.0 1.7 0.00 0.01 0.00 89 1029.7
20260505200805 53 123 1.7 2.6 0.00 0.01 0.00 88 1029.7
20260505200305 53 222 0.0 2.6 0.00 0.01 0.00 88 1029.7
20260505195805 53 82 0.9 2.6 0.00 0.01 0.00 89 1029.7
20260505195305 53 55 2.6 6.1 0.00 0.01 0.00 89 1029.7
20260505194805 53 117 1.7 2.6 0.00 0.01 0.00 88 1029.7
20260505194305 53 329 1.7 2.6 0.00 0.01 0.00 88 1029.7
20260505193805 53 52 0.9 2.6 0.00 0.01 0.00 88 1029.7
20260505192804 53 129 0.9 4.3 0.00 0.01 0.00 87 1029.7
20260505192306 53 38 0.0 2.6 0.00 0.01 0.00 87 1029.7
20260505191305 54 191 0.0 0.9 0.00 0.01 0.00 87 1029.7
20260505190807 54 196 0.0 2.6 0.00 0.01 0.00 87 1029.6
20260505185805 54 149 0.0 2.6 0.00 0.01 0.00 86 1029.6
20260505184805 54 93 0.9 1.7 0.00 0.01 0.00 86 1029.7
20260505184304 54 126 1.7 5.2 0.00 0.01 0.00 86 1029.7
20260505183804 54 72 0.9 4.3 0.00 0.01 0.00 86 1029.6
20260505183305 54 87 2.6 6.1 0.00 0.01 0.00 86 1029.6
20260505182805 54 98 1.7 4.3 0.00 0.01 0.00 86 1029.6
20260505182306 54 76 1.7 5.2 0.00 0.01 0.00 86 1029.6
20260505181805 54 103 1.7 5.2 0.00 0.01 0.00 86 1029.6
20260505181305 54 262 0.9 6.1 0.00 0.01 0.00 86 1029.6
20260505180305 53 152 0.9 2.6 0.00 0.01 0.00 86 1029.6
20260505175806 54 64 0.9 1.7 0.00 0.01 0.00 87 1029.6
20260505175306 54 64 0.9 2.6 0.00 0.01 0.00 87 1029.6
20260505174805 54 85 0.9 4.3 0.00 0.01 0.00 87 1029.6
20260505174305 54 103 1.7 6.1 0.00 0.01 0.00 88 1029.6
20260505173806 53 359 0.9 7.8 0.00 0.01 0.00 88 1029.7
20260505173305 53 82 2.6 5.2 0.00 0.01 0.00 89 1029.7
20260505172805 53 194 0.9 5.2 0.00 0.01 0.00 89 1029.7
20260505172306 53 31 0.0 1.7 0.00 0.01 0.00 89 1029.6
20260505171805 53 69 1.7 4.3 0.00 0.01 0.00 90 1029.6
20260505171306 52 47 1.7 2.6 0.00 0.01 0.00 90 1029.6
20260505170304 52 323 0.9 1.7 0.00 0.01 0.00 90 1029.6
20260505165805 52 74 0.9 2.6 0.00 0.01 0.00 90 1029.6
20260505164804 52 1 0.9 2.6 0.00 0.01 0.00 91 1029.6
20260505164305 52 41 0.0 1.7 0.00 0.01 0.00 91 1029.6
20260505163305 52 83 0.9 2.6 0.00 0.01 0.00 91 1029.4
20260505162807 52 88 2.6 4.3 0.00 0.01 0.00 91 1029.4
20260505162307 51 16 0.9 2.6 0.00 0.01 0.00 91 1029.4
20260505161804 51 352 1.7 2.6 0.00 0.01 0.00 91 1029.4
20260505161305 52 338 0.0 1.7 0.00 0.01 0.00 91 1029.4
20260505160819 52 325 0.9 1.7 0.00 0.01 0.00 90 1029.4
20260505152805 53 353 0.9 1.7 0.00 0.01 0.01 89 1029.4
20260505152305 53 288 0.9 2.6 0.00 0.01 0.01 89 1029.4
20260505150805 53 284 1.7 2.6 0.00 0.01 0.01 88 1029.4
20260505150305 53 296 1.7 2.6 0.00 0.01 0.01 88 1029.4
20260505140306 55 139 1.7 4.3 0.00 0.01 0.01 87 1029.4
20260505124806 55 178 0.9 2.6 0.00 0.01 0.01 83 1028.7
20260505123805 55 209 0.9 1.7 0.00 0.01 0.01 82 1028.7
20260505123305 56 204 0.0 1.7 0.00 0.01 0.01 82 1028.7
20260505122806 56 199 0.9 2.6 0.00 0.01 0.01 82 1028.7
20260505122305 56 151 0.9 1.7 0.00 0.01 0.01 82 1028.7
20260505121304 56 201 1.7 2.6 0.00 0.01 0.01 81 1028.7
20260505120804 56 239 0.0 1.7 0.00 0.01 0.01 81 1028.7
20260505120305 56 239 0.9 1.7 0.00 0.01 0.01 81 1028.7
20260505115804 56 175 0.9 2.6 0.00 0.01 0.01 81 1028.7
20260505115306 56 265 0.9 2.6 0.00 0.01 0.01 81 1028.6
20260505114305 57 295 0.9 2.6 0.00 0.01 0.01 81 1028.0
20260505113305 57 235 0.0 2.6 0.00 0.01 0.01 81 1028.0
20260505112804 57 181 0.9 2.6 0.00 0.01 0.01 81 1028.0
20260505112305 57 197 0.9 1.7 0.00 0.01 0.01 81 1028.0
20260505111806 57 192 0.9 1.7 0.00 0.01 0.01 81 1028.0
20260505111305 57 199 0.9 1.7 0.00 0.01 0.01 80 1028.0
20260505110806 58 209 0.9 1.7 0.00 0.01 0.01 80 1028.0
20260505110306 58 209 0.9 2.6 0.00 0.01 0.01 80 1028.0
20260505101804 60 199 0.9 2.6 0.00 0.01 0.01 78 1027.5
20260505101305 61 175 0.0 1.7 0.00 0.01 0.01 78 1027.5
20260505100804 61 175 0.9 2.6 0.00 0.01 0.01 77 1027.5
20260505100305 61 189 0.9 2.6 0.00 0.01 0.01 77 1027.5
20260505095805 62 156 0.0 1.7 0.00 0.01 0.01 76 1027.3
20260505095305 62 213 0.9 1.7 0.00 0.01 0.01 76 1027.3
20260505093806 63 176 0.9 2.6 0.00 0.01 0.01 74 1027.3
20260505093305 63 202 0.9 1.7 0.00 0.01 0.01 73 1027.2
20260505092805 63 206 0.9 2.6 0.00 0.01 0.01 73 1027.2
20260505092305 63 185 0.9 2.6 0.00 0.01 0.01 72 1026.7
20260505091306 64 181 0.9 2.6 0.00 0.01 0.01 72 1026.7
20260505090805 64 180 0.9 2.6 0.00 0.01 0.01 72 1026.7
20260505085804 64 138 0.0 0.9 0.00 0.01 0.01 72 1026.7
20260505085305 64 175 0.0 1.7 0.00 0.01 0.01 72 1026.7
20260505084804 65 185 0.9 2.6 0.00 0.01 0.01 70 1026.7
20260505084305 65 178 1.7 6.1 0.00 0.01 0.01 70 1026.7
20260505083805 65 161 0.9 2.6 0.00 0.01 0.01 69 1026.7
20260505082806 67 183 0.9 2.6 0.00 0.01 0.01 67 1026.7
20260505082306 67 156 0.9 1.7 0.00 0.01 0.01 66 1026.7
20260505081805 68 199 0.9 2.6 0.00 0.01 0.01 65 1026.7
20260505081306 67 159 0.9 2.6 0.00 0.01 0.01 65 1026.6
20260505080805 68 212 0.9 1.7 0.00 0.01 0.01 64 1026.6
20260505075805 67 213 2.6 4.3 0.00 0.01 0.01 66 1026.6
20260505074806 68 193 1.7 2.6 0.00 0.01 0.01 65 1026.6
20260505074305 68 223 2.6 5.2 0.00 0.01 0.01 65 1026.5
20260505073805 67 140 1.7 2.6 0.00 0.01 0.01 66 1026.5
20260505073306 67 233 1.7 2.6 0.00 0.01 0.01 66 1026.5
20260505072806 68 211 1.7 2.6 0.00 0.01 0.01 65 1026.5
20260505072305 67 214 1.7 2.6 0.00 0.01 0.01 64 1026.5
20260505071804 68 214 0.9 2.6 0.00 0.01 0.01 64 1026.5
20260505071305 68 233 0.9 5.2 0.00 0.01 0.01 64 1026.5
20260505070305 69 90 0.9 1.7 0.00 0.01 0.01 61 1026.6
20260505065805 69 49 0.9 2.6 0.00 0.01 0.01 62 1026.6
20260505065306 68 151 1.7 4.3 0.00 0.01 0.01 65 1026.6
20260505064305 69 218 1.7 5.2 0.00 0.01 0.01 64 1026.6
20260505063806 69 208 1.7 6.1 0.00 0.01 0.01 65 1026.6
20260505062806 68 117 0.9 2.6 0.00 0.01 0.01 63 1026.6
20260505062305 67 232 0.9 2.6 0.00 0.01 0.01 64 1026.6
20260505061804 66 165 0.0 1.7 0.00 0.01 0.01 69 1026.6
20260505061305 66 185 0.0 1.7 0.00 0.01 0.01 69 1026.7
20260505060805 66 214 0.9 2.6 0.00 0.01 0.01 68 1026.7
20260505055804 67 127 1.7 2.6 0.00 0.01 0.01 67 1026.7
20260505055306 67 185 1.7 2.6 0.00 0.01 0.01 70 1026.7
20260505054804 66 209 1.7 2.6 0.00 0.01 0.01 70 1026.7
20260505054304 65 192 2.6 4.3 0.00 0.01 0.01 69 1026.7
20260505053806 66 159 0.9 2.6 0.00 0.01 0.01 69 1026.7
20260505053304 67 183 0.9 2.6 0.00 0.01 0.01 66 1026.7
20260505052806 68 148 1.7 2.6 0.00 0.01 0.01 65 1026.7
20260505052305 69 28 1.7 4.3 0.00 0.01 0.01 65 1026.7
20260505051805 68 134 1.7 2.6 0.00 0.01 0.01 65 1026.7
20260505051305 68 107 2.6 5.2 0.00 0.01 0.01 67 1027.2
20260505050805 67 75 0.0 1.7 0.00 0.01 0.01 68 1027.2
20260505050306 65 184 0.0 0.9 0.00 0.01 0.01 70 1027.2
20260505041305 65 196 0.9 1.7 0.00 0.01 0.01 74 1028.0
20260505040805 65 196 0.9 2.6 0.00 0.01 0.01 73 1028.0
20260505040305 65 198 0.0 1.7 0.00 0.01 0.01 73 1028.0
20260505035805 64 122 0.0 2.6 0.00 0.01 0.01 74 1028.0